Probability
0 0 0 0 0 0 0 0 0 0 0 0 0 3 13 19 23 23 26 35 35 45 39 39 35 39 45 48 48 48 48 48 45 42 48 48 45 42 45 39 39 39 39 42
0 0 0 0 0 0 0 0 0 0 3 0 0 3 3 13 19 23 26 32 42 42 35 42 42 39 42 45 48 48 48 48 45 42 42 42 42 42 39 35 35 35 35 35
0 0 0 0 0 0 0 0 0 0 3 3 0 0 3 6 19 29 29 29 32 29 35 45 42 42 42 45 39 45 48 45 42 42 42 39 35 39 32 32 32 32 35 29
0 0 0 0 0 0 0 0 0 0 0 0 0 0 0 6 13 19 26 26 32 39 42 42 39 39 42 39 39 45 39 42 39 39 42 35 35 35 32 32 29 32 29 29
0 0 0 0 0 0 0 0 0 0 0 0 0 0 0 6 10 10 26 32 32 39 39 45 35 35 42 35 39 35 39 35 35 35 35 32 35 35 32 26 29 23 23 23
0 0 0 0 0 0 0 0 0 0 0 0 0 0 0 0 3 10 16 29 39 45 52 45 35 35 35 35 32 35 35 35 35 35 35 35 35 35 35 32 26 26 16 23
0 0 0 0 0 0 0 0 0 0 0 0 0 0 0 0 0 3 19 29 39 55 48 45 42 42 35 35 32 32 35 35 32 32 32 32 32 32 29 29 26 23 19 19
0 0 0 0 0 0 0 0 0 0 0 0 0 0 0 0 6 13 13 26 48 52 39 42 48 42 35 29 29 29 29 35 35 32 32 32 32 29 23 23 23 23 19 16
0 0 0 0 0 0 0 0 0 0 0 0 0 0 0 3 6 6 13 35 45 45 45 42 42 35 29 29 32 29 32 29 32 29 29 29 29 26 19 23 19 16 16 10
0 0 0 0 0 0 0 0 0 0 0 0 0 0 0 0 10 16 19 29 32 39 29 39 32 29 29 29 29 29 26 19 19 19 19 19 19 19 23 16 16 13 13 10
0 0 0 0 0 0 0 0 0 0 0 0 0 0 0 3 13 19 16 19 35 35 26 32 29 23 19 19 13 19 19 16 16 16 16 16 23 16 16 16 16 13 10 6
0 0 0 0 0 0 0 0 0 0 0 0 0 0 3 10 10 19 23 19 23 26 23 23 19 19 13 13 13 19 19 16 16 16 16 19 13 13 16 16 16 16 6 3
0 0 0 0 0 0 0 0 0 0 0 0 0 0 10 13 13 23 26 26 19 19 16 16 16 10 10 13 16 16 19 19 16 16 16 16 13 13 13 19 19 13 6 6
0 0 0 0 0 0 0 0 0 0 0 0 0 0 0 6 13 23 29 23 19 19 13 13 13 13 13 13 13 16 16 13 13 13 13 13 13 13 13 16 19 13 6 3
0 0 0 0 0 0 0 0 0 0 0 0 0 0 0 0 6 13 23 26 16 6 6 6 13 13 13 13 13 13 16 13 10 13 10 10 10 13 13 13 13 13 6 0
0 0 0 0 0 0 0 0 0 0 0 0 0 0 0 3 10 23 23 19 13 6 3 3 10 13 13 13 13 13 10 10 10 10 10 10 10 10 13 10 10 6 10 3
0 0 0 0 0 0 0 0 0 0 0 0 0 0 3 10 13 19 23 13 10 10 6 10 10 10 13 13 13 13 6 6 10 13 10 10 10 10 13 6 6 6 6 3
0 0 0 0 0 0 0 0 0 0 0 0 0 0 0 6 19 16 19 13 16 10 6 13 13 13 13 13 13 13 10 10 10 10 10 6 6 6 6 3 3 6 10 10
0 0 3 0 0 0 0 0 0 0 0 0 0 0 3 10 10 13 16 13 16 13 13 13 13 13 13 13 13 10 10 6 6 3 3 0 0 3 3 3 3 6 10 6
3 3 3 3 0 0 0 0 0 0 0 0 0 6 6 3 10 10 13 13 13 19 13 10 10 13 13 13 13 10 10 6 3 3 0 0 0 3 3 3 3 3 3 3
0 0 0 0 0 0 0 0 0 0 0 0 3 6 3 3 13 13 10 16 19 23 19 10 10 10 10 10 10 10 10 3 3 3 0 3 3 3 6 6 6 6 3 6
0 0 0 0 0 0 0 0 0 3 3 3 6 10 6 3 16 13 10 23 19 23 16 10 10 10 10 6 6 3 3 3 0 0 3 3 3 0 0 3 3 3 6 3
0 3 0 0 0 3 0 3 3 3 3 3 10 6 6 0 10 13 19 19 16 16 6 6 6 3 3 3 3 3 3 3 3 3 3 3 3 3 0 3 3 3 3 0
0 3 0 0 0 0 0 3 3 3 3 3 10 3 0 0 6 10 19 16 16 13 6 6 6 3 3 3 3 6 3 3 6 3 3 3 3 0 3 3 3 0 0 0
0 0 0 0 0 0 3 0 0 0 3 6 0 0 0 6 13 10 16 10 13 10 10 6 6 6 6 6 6 6 6 3 3 3 0 0 0 0 3 3 3 0 3 3
0 0 0 0 0 0 3 0 0 0 3 0 3 3 0 6 10 6 6 6 10 10 10 6 6 3 3 3 3 3 0 0 3 0 3 0 0 0 0 0 0 0 0 0
Height
5855 5856 5856 5856 5855 5855 5855 5855 5855 5854 5852 5852 5852 5852 5851 5850 5850 5849 5848 5847 5846 5845 5844 5843 5842 5842 5841 5841 5840 5839 5837 5835 5833 5832 5831 5829 5827 5825 5823 5820 5818 5816 5813 5811
5855 5855 5854 5853 5853 5853 5852 5852 5852 5851 5849 5849 5848 5848 5847 5846 5845 5845 5844 5843 5842 5841 5840 5839 5838 5837 5837 5836 5835 5834 5833 5831 5829 5828 5826 5824 5822 5819 5817 5815 5812 5810 5808 5805
5854 5854 5852 5851 5851 5850 5850 5850 5849 5848 5846 5845 5844 5844 5844 5842 5841 5840 5839 5838 5837 5836 5835 5834 5834 5833 5832 5831 5830 5830 5828 5827 5825 5823 5821 5818 5816 5813 5812 5809 5807 5805 5802 5800
5852 5851 5850 5849 5849 5848 5848 5846 5845 5844 5843 5843 5842 5841 5840 5838 5837 5835 5834 5833 5832 5831 5830 5830 5828 5828 5827 5826 5825 5825 5824 5823 5820 5818 5815 5812 5811 5808 5806 5804 5802 5800 5797 5794
5850 5849 5848 5847 5846 5844 5844 5842 5841 5840 5839 5839 5838 5837 5837 5834 5832 5831 5829 5828 5827 5826 5825 5824 5823 5822 5822 5821 5821 5820 5819 5817 5815 5813 5811 5808 5806 5804 5801 5799 5797 5795 5792 5790
5848 5846 5845 5844 5842 5841 5839 5839 5837 5836 5836 5835 5834 5833 5833 5830 5827 5826 5824 5823 5822 5821 5820 5819 5818 5818 5817 5817 5816 5815 5813 5812 5810 5808 5806 5804 5801 5799 5797 5794 5791 5789 5787 5784
5845 5843 5841 5840 5838 5837 5836 5836 5835 5834 5834 5832 5829 5827 5827 5824 5822 5821 5819 5818 5817 5816 5815 5814 5814 5813 5812 5812 5811 5810 5808 5807 5805 5803 5801 5799 5796 5793 5790 5788 5785 5783 5781 5779
5842 5841 5838 5835 5834 5833 5831 5831 5831 5830 5829 5828 5825 5823 5822 5819 5817 5816 5814 5813 5812 5811 5810 5810 5809 5808 5808 5807 5806 5805 5804 5802 5800 5798 5796 5793 5790 5787 5785 5782 5780 5778 5775 5773
5836 5836 5833 5830 5828 5828 5826 5825 5825 5823 5822 5821 5820 5819 5817 5813 5812 5811 5810 5808 5807 5806 5806 5805 5804 5804 5803 5803 5801 5800 5799 5797 5795 5793 5790 5787 5785 5783 5780 5778 5775 5773 5770 5768
5830 5829 5828 5825 5823 5822 5821 5819 5819 5818 5816 5815 5815 5814 5813 5809 5807 5806 5804 5803 5803 5802 5801 5800 5799 5799 5798 5797 5796 5795 5794 5792 5790 5788 5785 5783 5780 5778 5776 5773 5771 5768 5765 5763
5823 5822 5821 5819 5817 5816 5815 5814 5812 5812 5811 5810 5809 5811 5807 5804 5802 5801 5800 5799 5798 5797 5796 5795 5795 5794 5793 5792 5791 5790 5788 5787 5785 5782 5780 5778 5776 5773 5771 5768 5766 5763 5760 5758
5816 5814 5812 5811 5810 5808 5808 5807 5806 5806 5804 5803 5803 5805 5800 5799 5797 5796 5795 5794 5793 5792 5791 5790 5789 5789 5788 5787 5786 5785 5784 5782 5780 5778 5775 5773 5771 5769 5766 5764 5761 5759 5756 5753
5808 5806 5804 5804 5804 5802 5800 5799 5798 5798 5797 5797 5796 5799 5795 5794 5792 5791 5790 5789 5788 5787 5786 5785 5784 5784 5783 5782 5781 5780 5778 5777 5775 5773 5771 5769 5767 5764 5762 5759 5757 5754 5751 5749
5798 5797 5797 5797 5796 5794 5793 5792 5791 5791 5791 5790 5790 5791 5790 5789 5787 5786 5785 5784 5783 5782 5781 5780 5779 5778 5778 5777 5776 5775 5773 5772 5770 5768 5766 5764 5762 5760 5757 5755 5753 5750 5747 5745
5791 5789 5788 5787 5787 5786 5785 5785 5785 5784 5784 5784 5784 5784 5784 5784 5783 5781 5780 5780 5779 5778 5777 5775 5774 5774 5773 5772 5771 5770 5769 5768 5766 5764 5762 5760 5758 5756 5753 5750 5748 5746 5743 5741
5783 5782 5781 5781 5780 5779 5778 5778 5778 5778 5777 5777 5778 5778 5778 5778 5777 5777 5776 5775 5774 5773 5772 5771 5770 5770 5769 5768 5767 5766 5765 5763 5762 5760 5758 5756 5754 5752 5749 5747 5745 5742 5740 5737
5777 5776 5775 5775 5774 5773 5773 5773 5772 5771 5771 5772 5772 5774 5773 5773 5773 5772 5772 5771 5770 5769 5768 5767 5766 5766 5765 5764 5763 5762 5761 5759 5758 5756 5754 5752 5750 5748 5746 5743 5742 5739 5737 5734
5772 5771 5770 5769 5769 5768 5770 5767 5766 5765 5766 5766 5766 5767 5768 5768 5768 5768 5767 5767 5766 5765 5765 5764 5763 5762 5761 5760 5759 5758 5757 5756 5754 5753 5751 5749 5747 5745 5743 5740 5738 5736 5734 5731
5767 5766 5765 5764 5763 5763 5763 5762 5761 5761 5761 5762 5762 5763 5763 5763 5764 5764 5764 5763 5762 5762 5761 5760 5759 5758 5757 5756 5755 5754 5753 5752 5751 5749 5748 5746 5744 5742 5740 5738 5735 5733 5731 5728
5763 5761 5761 5760 5759 5759 5759 5757 5757 5758 5758 5757 5757 5758 5758 5758 5759 5760 5759 5759 5758 5758 5757 5756 5755 5754 5753 5752 5751 5750 5749 5749 5748 5746 5745 5743 5741 5739 5737 5734 5732 5730 5728 5725
5759 5757 5756 5755 5754 5753 5753 5753 5754 5755 5754 5753 5753 5753 5754 5754 5755 5756 5755 5755 5755 5755 5754 5753 5752 5750 5749 5748 5748 5747 5746 5746 5745 5743 5742 5740 5738 5736 5734 5732 5729 5727 5725 5722
5754 5753 5752 5751 5750 5751 5748 5749 5749 5749 5749 5749 5749 5750 5750 5751 5752 5752 5752 5752 5752 5752 5751 5750 5749 5748 5747 5746 5745 5745 5744 5743 5742 5741 5739 5738 5736 5733 5731 5729 5727 5725 5722 5720
5749 5749 5747 5746 5747 5745 5744 5744 5744 5744 5744 5745 5745 5746 5747 5748 5748 5749 5749 5749 5749 5749 5748 5747 5746 5745 5745 5744 5743 5743 5742 5741 5740 5738 5737 5736 5734 5732 5729 5727 5725 5723 5720 5717
5745 5743 5742 5741 5741 5741 5740 5740 5739 5740 5740 5741 5742 5743 5743 5745 5745 5746 5746 5746 5746 5746 5745 5745 5744 5743 5742 5742 5741 5741 5740 5739 5737 5736 5735 5733 5731 5729 5727 5725 5723 5720 5717 5714
5740 5739 5738 5737 5737 5736 5736 5736 5736 5736 5737 5738 5739 5740 5741 5741 5742 5743 5743 5743 5743 5743 5742 5742 5741 5741 5740 5740 5739 5738 5737 5736 5735 5734 5732 5731 5729 5727 5725 5723 5720 5717 5714 5711
5736 5735 5734 5733 5733 5732 5732 5732 5732 5733 5733 5734 5735 5737 5737 5738 5739 5740 5740 5741 5741 5740 5740 5739 5739 5738 5738 5737 5737 5736 5735 5734 5733 5731 5730 5728 5726 5724 5722 5720 5718 5714 5711 5708
Wind_Speed
3 4 6 7 8 9 11 11 13 14 16 17 17 18 18 19 19 19 19 18 18 19 19 19 20 20 20 20 20 20 20 21 20 20 21 22 23 23 23 23 24 24 24 25
4 6 8 9 10 11 12 13 14 15 16 17 18 18 18 19 19 19 19 19 20 20 20 20 20 20 20 19 19 20 21 21 21 21 22 23 23 24 24 24 25 25 24 24
5 7 9 9 10 11 13 14 15 16 16 16 17 17 17 18 19 19 19 20 20 20 19 20 20 21 20 20 20 21 21 21 22 23 24 23 23 24 24 24 24 24 24 24
8 9 10 11 11 12 13 15 16 17 17 16 17 16 17 18 19 20 20 20 20 19 20 20 21 21 20 21 21 21 21 22 23 23 23 23 23 23 24 24 24 24 24 23
10 11 12 12 14 15 15 17 17 17 18 18 18 18 17 18 19 20 20 20 19 19 20 21 21 20 20 21 21 21 21 23 24 24 23 23 24 24 24 25 25 24 24 24
12 13 14 15 16 17 18 18 18 18 18 18 19 19 18 19 20 19 19 19 19 20 20 20 20 20 20 21 21 22 22 23 24 25 24 25 24 24 24 24 24 23 24 24
14 15 17 17 17 18 18 17 17 17 17 18 19 19 19 20 19 18 18 19 19 19 20 20 20 20 20 20 21 21 22 22 23 24 24 25 25 24 24 24 22 22 23 23
16 17 18 19 19 20 19 18 18 18 17 18 19 18 18 19 18 18 18 18 19 19 20 20 19 19 20 20 21 21 21 22 23 24 25 24 24 23 23 23 22 21 22 23
18 19 19 20 21 21 21 20 19 20 20 20 19 18 19 20 19 19 18 18 18 19 20 20 19 19 20 20 20 21 22 22 23 24 24 24 23 22 22 22 22 21 21 22
21 22 21 21 21 21 21 21 21 20 20 20 19 18 18 20 19 19 20 19 19 18 18 19 19 19 20 20 20 21 22 22 23 23 23 23 23 22 22 22 22 21 21 22
24 25 24 23 22 21 21 20 21 21 21 20 20 18 19 19 18 18 19 19 19 19 18 18 18 19 19 20 21 21 21 21 21 21 22 22 21 21 21 21 21 21 21 21
27 27 27 26 24 23 22 22 22 22 22 22 23 21 20 18 18 18 18 18 18 18 19 18 18 18 19 19 20 20 20 20 20 20 20 20 19 19 19 20 19 20 20 21
29 29 28 26 24 24 23 22 22 23 23 23 23 21 19 18 18 18 18 18 18 17 17 18 18 18 18 18 18 18 18 18 19 19 19 18 18 18 18 18 18 18 19 20
29 28 27 25 24 23 23 22 22 22 22 22 21 20 18 17 17 17 17 16 16 16 16 16 17 16 16 16 16 16 17 17 18 18 18 18 17 17 17 17 17 17 17 18
27 26 25 25 24 24 23 22 22 21 21 21 19 19 18 17 17 16 15 15 14 14 14 14 14 14 15 15 15 16 16 17 17 17 17 17 16 16 17 17 17 16 16 18
24 23 23 23 22 22 22 21 21 20 19 19 18 18 17 16 16 16 15 14 13 13 13 13 13 14 14 14 15 16 15 16 16 16 16 16 15 15 15 15 15 15 16 17
21 21 21 20 20 20 20 18 18 17 16 17 17 17 16 15 15 15 15 15 14 13 13 13 13 14 14 14 15 15 15 15 15 15 15 15 14 15 14 14 14 15 16 17
20 20 20 19 19 19 18 17 17 16 16 16 16 15 14 15 15 14 14 14 13 13 13 13 13 13 13 13 14 14 14 14 14 14 13 13 14 14 14 14 14 15 16 17
18 18 18 18 17 17 17 16 15 14 14 14 14 14 14 14 13 14 13 13 13 13 13 13 13 13 13 13 14 14 13 13 12 12 13 13 14 14 13 13 14 14 15 16
17 17 17 17 16 16 16 15 14 13 14 14 13 13 14 13 13 13 13 12 12 12 12 12 12 13 13 12 13 12 11 11 11 12 12 13 13 12 12 13 12 13 14 16
17 17 17 17 16 16 14 13 13 14 14 14 13 13 12 13 12 12 11 11 11 10 10 11 11 11 11 10 10 10 10 10 11 11 11 11 11 11 11 12 12 13 15 16
18 17 16 16 16 15 13 13 14 14 14 13 13 13 11 11 10 10 10 10 10 9 9 9 9 9 9 9 9 8 9 9 9 10 10 10 10 11 11 12 12 14 15 16
17 17 17 16 16 14 14 14 14 14 13 13 12 12 10 10 10 9 9 9 9 9 8 8 9 9 8 8 8 8 8 8 9 9 10 10 11 11 11 12 13 14 15 16
17 16 17 16 15 13 13 13 13 13 12 12 12 11 10 10 9 9 9 9 8 8 8 8 9 8 8 8 8 8 8 8 9 10 10 10 11 11 11 12 13 14 15 16
18 17 16 15 14 13 13 13 12 13 12 11 11 11 11 11 10 9 9 9 9 9 8 8 8 8 8 8 8 8 8 9 9 10 11 11 11 11 12 13 14 15 15 15
17 16 16 15 14 13 12 12 11 11 12 11 10 11 11 10 10 9 9 9 9 8 8 8 7 7 7 7 6 7 7 8 9 10 11 11 10 11 12 13 14 15 15 16
Wind_Direction
280 275 273 266 267 269 273 277 279 279 278 277 275 275 276 277 276 277 278 280 279 279 278 276 275 273 273 272 274 276 278 283 287 291 291 290 288 288 291 291 290 292 294 294
287 285 278 275 277 279 282 285 284 282 281 280 278 278 276 275 276 277 279 280 278 279 278 275 276 276 276 275 274 276 280 283 288 291 292 292 290 290 292 292 291 292 294 295
276 278 285 284 285 289 290 286 283 282 284 285 283 284 282 278 279 280 282 283 280 279 278 277 277 279 277 274 275 278 280 284 287 289 290 292 293 291 291 291 291 291 292 292
289 289 290 290 289 290 293 290 288 287 287 287 285 285 283 279 281 282 284 283 282 279 280 280 280 279 275 275 276 279 282 284 286 288 290 293 294 292 291 291 291 289 291 294
296 295 294 292 289 289 288 289 289 288 286 285 284 283 285 283 282 282 282 281 280 279 279 280 280 277 274 275 278 281 282 285 287 291 293 293 295 294 292 290 288 289 292 294
299 297 294 294 292 289 289 290 291 291 290 286 283 282 284 280 280 280 279 279 279 277 279 281 279 276 275 277 279 281 284 287 289 292 294 295 294 293 292 291 289 290 292 292
299 297 295 296 294 292 291 291 293 294 290 287 285 282 281 279 282 281 281 282 281 278 278 281 281 278 276 278 281 283 286 289 291 292 294 295 295 292 292 293 292 292 292 292
296 295 293 293 291 290 289 288 286 286 286 286 285 285 284 281 282 282 281 282 280 279 279 280 280 279 279 280 283 285 288 290 292 293 294 295 296 297 295 294 293 292 292 294
295 295 294 292 289 288 286 285 281 281 285 285 285 287 288 288 285 281 282 282 279 279 280 278 277 280 281 281 283 284 287 290 293 294 294 294 296 297 299 298 297 295 295 296
296 295 295 293 292 288 284 280 280 280 282 283 285 287 284 288 287 285 283 281 281 280 279 277 277 278 279 280 282 285 288 290 292 295 296 298 298 298 300 300 299 300 300 301
295 295 295 292 290 285 283 281 280 278 275 279 281 281 281 286 287 286 283 280 281 281 279 280 278 278 278 280 282 286 287 290 293 295 296 298 300 301 300 301 302 302 304 305
293 294 292 291 290 285 282 279 278 277 277 276 278 281 282 286 289 288 286 284 282 283 281 280 279 278 279 281 282 286 288 291 295 297 296 298 300 302 302 301 302 302 304 307
294 292 293 292 291 290 286 281 278 277 276 275 276 278 281 287 289 290 288 285 284 286 285 281 279 279 279 280 284 288 290 291 295 298 298 299 299 301 303 304 304 305 307 307
295 292 289 288 286 284 283 281 280 278 276 276 275 276 279 285 288 289 288 286 288 290 286 285 284 279 280 283 286 289 291 291 295 299 301 301 302 303 305 306 308 310 311 311
295 292 289 287 285 284 283 280 277 277 275 276 276 276 278 282 286 286 286 289 290 290 289 288 287 285 283 284 285 288 291 293 297 301 302 303 303 304 306 307 310 309 313 316
297 293 292 290 288 285 283 280 277 276 275 275 275 275 277 282 283 285 288 288 287 286 286 288 286 286 285 285 286 288 293 296 299 302 303 305 306 308 310 311 310 312 314 318
299 296 294 294 291 287 287 285 279 278 274 272 273 272 275 277 279 283 287 285 283 283 283 288 287 287 285 285 286 289 293 298 303 305 306 307 308 311 311 312 311 313 315 318
301 297 296 295 294 291 294 285 278 277 273 269 269 271 272 274 276 280 285 286 284 283 283 286 288 288 289 291 290 292 294 298 303 307 308 309 310 313 312 312 313 313 316 320
303 298 296 296 298 297 293 286 279 275 273 270 268 269 270 270 272 274 277 283 289 284 285 289 289 290 290 294 294 292 293 297 302 305 308 310 311 312 313 314 314 315 319 324
306 302 297 296 295 294 290 285 282 278 275 271 269 270 269 268 269 273 276 278 286 291 291 294 294 293 294 295 294 294 294 297 302 306 309 312 313 315 316 318 319 321 323 326
305 302 298 295 292 291 290 283 279 273 272 270 266 267 269 268 269 273 276 278 286 290 293 295 294 297 299 297 296 297 298 300 303 308 312 315 317 318 321 324 325 327 329 328
301 299 295 292 290 290 287 281 275 273 271 268 265 266 267 264 263 267 274 277 281 285 290 293 295 298 300 301 300 297 299 303 306 310 315 319 321 322 325 329 330 330 330 330
296 295 293 291 288 285 283 282 277 274 269 264 260 258 258 258 259 263 272 275 277 284 289 292 294 298 297 298 299 298 301 304 307 312 317 322 326 328 329 329 330 331 331 331
293 294 292 289 288 279 276 280 275 271 267 260 255 252 253 254 256 262 266 271 278 283 287 290 292 295 297 296 297 298 301 302 307 311 317 322 326 327 329 330 330 330 332 333
292 297 293 286 278 271 269 275 270 265 261 254 249 246 249 253 251 255 261 271 278 280 285 288 289 292 294 295 297 301 302 306 309 311 315 318 321 324 327 330 330 331 332 332
295 297 291 284 279 270 268 271 263 262 261 255 250 245 245 247 249 253 260 269 274 277 281 283 285 292 298 298 298 301 304 309 309 312 315 315 318 324 329 332 333 334 335 335